1514491201.03,12968,5.56,71596.5,-6.53,-7.23,-7.19,0,*5D
1514491202.26,12969,5.56,71596.8,-6.53,-7.23,-7.23,0,*55
1514491203.46,12970,5.56,71598.8,-6.55,-7.23,-7.23,0,*5B
1514491204.71,12971,5.56,71598.8,-6.53,-7.31,-7.23,0,*5F
1514491205.91,12972,5.56,71594.3,-6.51,-7.15,-7.15,0,*5D
1514491207.11,12973,5.56,71594.8,-6.51,-7.19,-7.15,0,*50
1514491208.34,12974,5.5,71592.0,-6.53,-7.19,-7.19,0,*59
1514491209.57,12975,5.56,71596.0,-6.53,-7.19,-7.23,0,*51
1514491210.8,12976,5.56,71596.0,-6.53,-7.23,-7.23,0,*5B
1514491212.02,12977,5.56,71596.5,-6.53,-7.11,-7.19,0,*52
1514491213.23,12978,5.56,71596.5,-6.55,-7.19,-7.19,0,*53
1514491214.47,12979,5.56,71598.8,-6.53,-7.11,-7.05,0,*51
1514491215.7,12980,5.56,71594.8,-6.53,-7.19,-7.11,0,*5A
1514491216.93,12981,5.56,71596.0,-6.53,-7.19,-7.11,0,*5B
1514491218.16,12982,5.56,71596.5,-6.53,-7.19,-7.19,0,*50
1514491219.36,12983,5.56,71592.0,-6.51,-7.19,-7.15,0,*5F
1514491220.59,12984,5.5,71592.5,-6.53,-7.23,-7.19,0,*5F
1514491221.81,12985,5.56,71594.3,-6.53,-7.19,-7.23,0,*5E
1514491223.02,12986,5.5,71592.3,-6.51,-7.15,-7.15,0,*56
1514491224.22,12987,5.56,71592.3,-6.51,-7.15,-7.15,0,*57
1514491225.43,12988,5.56,71596.8,-6.51,-7.19,-7.05,0,*55
1514491226.64,12989,5.56,71598.8,-6.51,-7.19,-7.15,0,*55
1514491227.88,12990,5.56,71596.5,-6.51,-7.27,-7.27,0,*51
1514491229.13,12991,5.5,71594.5,-6.53,-7.31,-7.23,0,*51
1514491230.35,12992,5.5,71594.0,-6.51,-7.27,-7.19,0,*5E
1514491231.57,12993,5.5,71592.8,-6.51,-7.27,-7.19,0,*5F
1514491232.8,12994,5.56,71598.0,-6.51,-7.27,-7.19,0,*58
1514491234.02,12995,5.56,71596.3,-6.51,-7.27,-7.19,0,*59
1514491235.26,12996,5.5,71592.8,-6.53,-7.31,-7.23,0,*56
1514491236.49,12997,5.56,71596.8,-6.53,-7.23,-7.23,0,*54
1514491237.71,12998,5.56,71600.3,-6.53,-7.23,-7.19,0,*52
1514491238.94,12999,5.56,71598.8,-6.53,-7.23,-7.19,0,*53
1514491240.16,13000,5.56,71604.5,-6.53,-7.23,-7.23,0,*52
1514491241.39,13001,5.56,71598.0,-6.53,-7.23,-7.19,0,*5A
1514491242.63,13002,5.56,71600.0,-6.53,-7.23,-7.31,0,*53
1514491243.86,13003,5.56,71596.5,-6.53,-7.23,-7.23,0,*51
1514491245.06,13004,5.56,71602.8,-6.51,-7.15,-7.15,0,*54
1514491246.26,13005,5.56,71596.8,-6.51,-7.19,-7.15,0,*59
1514491247.47,13006,5.56,71596.0,-6.51,-7.19,-7.19,0,*56
1514491248.69,13007,5.56,71598.3,-6.51,-7.27,-7.15,0,*56
1514491249.91,13008,5.56,71594.3,-6.51,-7.27,-7.15,0,*59
1514491251.11,13009,5.56,71596.0,-6.51,-7.19,-7.15,0,*55
1514491252.34,13010,5.56,71594.8,-6.53,-7.23,-7.23,0,*53
1514491253.56,13011,5.56,71590.8,-6.53,-7.23,-7.19,0,*5B
1514491254.76,13012,5.56,71592.0,-6.47,-7.15,-7.15,0,*54
1514491255.96,13013,5.56,71590.3,-6.51,-7.19,-7.15,0,*5E
1514491257.17,13014,5.56,71590.8,-6.51,-7.19,-7.15,0,*59
1514491258.37,13015,5.5,71586.3,-6.51,-7.15,-7.15,0,*54
1514491259.57,13016,5.56,71590.0,-6.51,-7.15,-7.15,0,*57
1514491260.77,13017,5.56,71586.0,-6.51,-7.19,-7.15,0,*5A
1514491261.97,13018,5.56,71584.5,-6.51,-7.15,-7.15,0,*59
1514491263.17,13019,5.56,71586.3,-6.51,-7.15,-7.15,0,*58
1514491264.39,13020,5.5,71582.3,-6.51,-7.15,-7.05,0,*53
1514491265.61,13021,5.56,71586.5,-6.51,-7.15,-7.05,0,*52
1514491266.81,13022,5.56,71584.0,-6.51,-7.15,-7.15,0,*50
1514491268.01,13023,5.56,71586.0,-6.51,-7.15,-7.19,0,*5D
1514491269.23,13024,5.56,71586.5,-6.53,-7.19,-7.19,0,*54
1514491270.45,13025,5.56,71584.0,-6.51,-7.15,-7.05,0,*56
1514491271.67,13026,5.56,71586.0,-6.51,-7.15,-7.05,0,*55
1514491272.88,13027,5.56,71584.5,-6.51,-7.15,-7.05,0,*54
1514491274.1,13028,5.5,71586.3,-6.51,-7.19,-7.05,0,*57
1514491275.33,13029,5.56,71584.3,-6.53,-7.19,-7.19,0,*59
1514491276.53,13030,5.5,71584.8,-6.47,-7.15,-7.11,0,*50
1514491277.73,13031,5.56,71590.0,-6.51,-7.15,-7.19,0,*5E
1514491278.94,13032,5.56,71592.3,-6.51,-7.19,-7.15,0,*5D
1514491280.14,13033,5.5,71584.5,-6.51,-7.15,-7.15,0,*50
1514491281.34,13034,5.56,71588.8,-6.51,-7.15,-7.15,0,*57
1514491282.54,13035,5.56,71590.3,-6.51,-7.19,-7.15,0,*5A
1514491283.75,13036,5.56,71588.0,-6.47,-7.11,-7.11,0,*52
1514491284.97,13037,5.56,71588.5,-6.47,-7.11,-7.01,0,*52
1514491286.17,13038,5.5,71586.5,-6.51,-7.15,-7.15,0,*5B
1514491287.37,13039,5.56,71590.5,-6.51,-7.15,-7.15,0,*5A
1514491288.57,13040,5.56,71590.5,-6.51,-7.15,-7.15,0,*54
1514491289.78,13041,5.56,71590.8,-6.47,-7.11,-7.11,0,*52
1514491291.0,13042,5.56,71588.3,-6.51,-7.15,-7.05,0,*57
1514491292.2,13043,5.56,71590.3,-6.51,-7.15,-7.15,0,*57
1514491293.4,13044,5.56,71594.5,-6.47,-7.11,-7.11,0,*57
1514491294.6,13045,5.56,71588.8,-6.51,-7.15,-7.15,0,*51
1514491295.82,13046,5.56,71590.5,-6.51,-7.15,-7.05,0,*53
1514491297.04,13047,5.56,71590.3,-6.51,-7.15,-7.05,0,*52
1514491298.26,13048,5.56,71594.5,-6.51,-7.05,-7.15,0,*5D
1514491299.5,13049,5.56,71592.3,-6.51,-7.05,-7.05,0,*5D
1514491300.7,13050,5.56,71594.5,-6.51,-7.15,-7.15,0,*55
1514491301.92,13051,5.56,71592.0,-6.51,-7.15,-7.05,0,*55
1514491303.14,13052,5.56,71592.0,-6.51,-7.11,-6.97,0,*58
1514491304.35,13053,5.56,71594.5,-6.47,-7.11,-7.11,0,*51
1514491305.57,13054,5.56,71592.8,-6.51,-7.05,-7.15,0,*50
1514491306.79,13055,5.56,71592.0,-6.51,-7.15,-7.01,0,*55
1514491308.04,13056,5.56,71594.8,-6.47,-7.01,-7.01,0,*54
1514491309.29,13057,5.5,71588.8,-6.47,-7.01,-7.01,0,*55
1514491310.53,13058,5.56,71594.0,-6.47,-7.01,-6.97,0,*54
1514491311.76,13059,5.56,71594.8,-6.47,-7.11,-6.97,0,*54
1514491313.0,13060,5.56,71598.5,-6.51,-7.05,-7.05,0,*56
1514491314.24,13061,5.56,71596.3,-6.51,-7.05,-7.05,0,*57
1514491315.45,13062,5.56,71592.3,-6.51,-7.15,-7.05,0,*55
1514491316.67,13063,5.56,71592.8,-6.51,-7.15,-7.05,0,*54
1514491317.89,13064,5.56,71594.5,-6.51,-7.15,-7.05,0,*53
1514491319.13,13065,5.56,71592.8,-6.47,-7.01,-6.97,0,*5A
1514491320.35,13066,5.56,71592.8,-6.51,-7.15,-7.01,0,*55
1514491321.57,13067,5.56,71594.5,-6.51,-7.19,-7.05,0,*5C
1514491322.78,13068,5.56,71592.0,-6.47,-7.11,-7.11,0,*59
1514491324.01,13069,5.56,71594.5,-6.51,-7.19,-7.01,0,*56
1514491325.21,13070,5.56,71594.3,-6.47,-7.15,-7.11,0,*54
1514491326.43,13071,5.5,71590.8,-6.51,-7.05,-7.15,0,*57
1514491327.63,13072,5.56,71590.8,-6.51,-7.15,-7.15,0,*55
1514491328.83,13073,5.56,71594.3,-6.51,-7.15,-7.19,0,*58
1514491330.03,13074,5.56,71594.0,-6.51,-7.15,-7.15,0,*53
1514491331.26,13075,5.56,71592.3,-6.47,-7.01,-7.15,0,*50
1514491332.46,13076,5.5,71588.8,-6.47,-7.11,-7.15,0,*52
1514491333.66,13077,5.56,71592.0,-6.47,-7.11,-7.15,0,*53
1514491334.87,13078,5.5,71590.3,-6.47,-7.11,-7.11,0,*58
1514491336.08,13079,5.56,71592.3,-6.47,-7.11,-7.11,0,*59
1514491337.3,13080,5.56,71594.0,-6.51,-7.05,-7.15,0,*59
1514491338.51,13081,5.56,71592.0,-6.47,-7.11,-7.11,0,*5E
1514491339.71,13082,5.56,71590.3,-6.47,-7.11,-7.11,0,*5D
1514491340.92,13083,5.56,71594.3,-6.47,-7.11,-7.11,0,*5C
1514491342.14,13084,5.56,71592.0,-6.47,-7.11,-7.01,0,*5A
1514491343.34,13085,5.56,71594.5,-6.47,-7.15,-7.15,0,*5A
1514491344.55,13086,5.56,71594.3,-6.47,-7.11,-7.11,0,*59
1514491345.75,13087,5.56,71590.3,-6.47,-7.15,-7.15,0,*58
1514491346.95,13088,5.56,71592.0,-6.51,-7.19,-7.15,0,*5C
1514491348.15,13089,5.56,71594.0,-6.51,-7.15,-7.19,0,*5D
1514491349.36,13090,5.5,71590.8,-6.51,-7.19,-7.15,0,*55
1514491350.58,13091,5.56,71592.0,-6.51,-7.27,-7.19,0,*55
1514491351.78,13092,5.56,71594.5,-6.51,-7.19,-7.19,0,*5B
1514491352.98,13093,5.56,71592.3,-6.47,-7.15,-7.11,0,*59
1514491354.19,13094,5.56,71594.0,-6.51,-7.19,-7.15,0,*51
1514491355.39,13095,5.56,71592.5,-6.47,-7.15,-7.11,0,*5F
1514491356.59,13096,5.56,71596.0,-6.47,-7.15,-7.11,0,*5C
1514491357.81,13097,5.56,71592.8,-6.51,-7.15,-7.05,0,*5F
1514491359.01,13098,5.56,71594.0,-6.51,-7.15,-7.15,0,*51
1514491360.24,13099,5.56,71596.3,-6.47,-7.11,-7.01,0,*56
1514491361.44,13100,5.56,71594.3,-6.51,-7.15,-7.15,0,*51
1514491362.65,13101,5.56,71592.3,-6.51,-7.15,-7.05,0,*51
1514491363.87,13102,5.56,71590.3,-6.51,-7.19,-7.05,0,*5E
1514491365.08,13103,5.56,71592.8,-6.47,-7.11,-7.11,0,*55
1514491366.28,13104,5.56,71588.3,-6.51,-7.11,-7.15,0,*51
1514491367.49,13105,5.56,71594.8,-6.47,-7.11,-7.15,0,*57
1514491368.69,13106,5.56,71592.3,-6.51,-7.15,-7.11,0,*53
1514491369.89,13107,5.56,71594.0,-6.47,-7.15,-7.15,0,*51
1514491371.09,13108,5.56,71590.8,-6.51,-7.15,-7.15,0,*59
1514491372.29,13109,5.5,71590.5,-6.47,-7.15,-7.11,0,*5B
1514491373.5,13110,5.5,71588.0,-6.51,-7.19,-7.15,0,*5C
1514491374.7,13111,5.5,71588.0,-6.47,-7.11,-7.11,0,*56
1514491375.91,13112,5.56,71590.8,-6.47,-7.15,-7.11,0,*51
1514491377.13,13113,5.56,71594.0,-6.45,-7.15,-7.11,0,*52
1514491378.34,13114,5.56,71592.0,-6.47,-7.15,-7.11,0,*57
1514491379.54,13115,5.56,71594.5,-6.51,-7.15,-7.19,0,*59
1514491380.74,13116,5.56,71592.0,-6.47,-7.15,-7.15,0,*51
1514491381.94,13117,5.56,71596.8,-6.51,-7.19,-7.19,0,*57
1514491383.14,13118,5.56,71596.3,-6.51,-7.19,-7.15,0,*54
1514491384.37,13119,5.56,71596.8,-6.45,-7.11,-7.15,0,*58
1514491385.57,13120,5.56,71598.5,-6.51,-7.19,-7.15,0,*5F
1514491386.78,13121,5.56,71598.8,-6.51,-7.19,-7.19,0,*52
1514491387.98,13122,5.56,71598.8,-6.51,-7.19,-7.19,0,*51
1514491389.18,13123,5.56,71598.8,-6.47,-7.11,-7.15,0,*53
1514491390.39,13124,5.56,71598.0,-6.47,-7.11,-7.11,0,*50
1514491391.59,13125,5.56,71602.3,-6.51,-7.19,-7.19,0,*56
1514491392.79,13126,5.56,71596.8,-6.47,-7.15,-7.11,0,*56
1514491394.0,13127,5.5,71596.0,-6.47,-7.11,-7.11,0,*53
1514491395.2,13128,5.56,71596.0,-6.51,-7.19,-7.15,0,*57
1514491396.41,13129,5.56,71596.5,-6.47,-7.15,-7.11,0,*59
1514491397.61,13130,5.56,71598.0,-6.51,-7.19,-7.15,0,*5E
1514491398.81,13131,5.5,71594.3,-6.51,-7.19,-7.19,0,*53
1514491400.02,13132,5.56,71594.8,-6.51,-7.19,-7.19,0,*50
1514491401.22,13133,5.56,71596.0,-6.47,-7.15,-7.15,0,*56
1514491402.42,13134,5.56,71596.3,-6.47,-7.15,-7.11,0,*55
1514491403.64,13135,5.56,71594.5,-6.45,-7.15,-7.15,0,*52
1514491404.85,13136,5.56,71594.8,-6.51,-7.19,-7.19,0,*54
1514491406.05,13137,5.56,71594.5,-6.47,-7.15,-7.11,0,*56
1514491407.25,13138,5.5,71592.3,-6.47,-7.15,-7.15,0,*5D
1514491408.45,13139,5.5,71588.3,-6.51,-7.19,-7.15,0,*57
1514491409.66,13140,5.56,71594.8,-6.47,-7.11,-7.11,0,*52
1514491410.86,13141,5.56,71592.3,-6.51,-7.19,-7.19,0,*54
1514491412.06,13142,5.56,71594.3,-6.51,-7.19,-7.19,0,*57
1514491413.27,13143,5.5,71592.3,-6.47,-7.15,-7.15,0,*51
1514491414.47,13144,5.56,71596.8,-6.51,-7.15,-7.15,0,*51
1514491415.67,13145,5.56,71594.5,-6.47,-7.15,-7.15,0,*57
1514491416.87,13146,5.56,71592.8,-6.51,-7.19,-7.19,0,*53
1514491418.07,13147,5.56,71594.3,-6.47,-7.23,-7.23,0,*55
1514491419.27,13148,5.56,71592.5,-6.51,-7.19,-7.19,0,*5D
1514491420.5,13149,5.56,71594.5,-6.45,-7.15,-7.15,0,*59
1514491421.72,13150,5.56,71594.0,-6.51,-7.27,-7.19,0,*59
1514491422.92,13151,5.56,71594.3,-6.51,-7.19,-7.15,0,*59
1514491424.12,13152,5.5,71588.3,-6.47,-7.15,-7.11,0,*55
1514491425.33,13153,5.56,71592.8,-6.51,-7.19,-7.15,0,*5B
1514491426.53,13154,5.56,71592.8,-6.51,-7.19,-7.19,0,*50
1514491427.73,13155,5.56,71590.5,-6.51,-7.15,-7.19,0,*5D
1514491428.93,13156,5.56,71590.5,-6.51,-7.15,-7.19,0,*5E
1514491430.14,13157,5.56,71592.0,-6.47,-7.15,-7.11,0,*50
1514491431.34,13158,5.56,71590.3,-6.47,-7.11,-7.11,0,*5B
1514491432.54,13159,5.56,71588.5,-6.51,-7.15,-7.15,0,*5D
1514491433.75,13160,5.56,71596.3,-6.47,-7.11,-7.11,0,*50
1514491434.95,13161,5.56,71594.0,-6.47,-7.15,-7.11,0,*55
1514491436.15,13162,5.56,71592.8,-6.51,-7.19,-7.15,0,*59
1514491437.38,13163,5.56,71594.3,-6.45,-7.15,-7.11,0,*55
1514491438.6,13164,5.5,71588.5,-6.47,-7.15,-7.01,0,*51
1514491439.83,13165,5.56,71592.0,-6.47,-7.11,-7.01,0,*54
1514491441.03,13166,5.5,71590.8,-6.51,-7.19,-7.15,0,*5D
1514491442.24,13167,5.56,71592.5,-6.51,-7.19,-7.15,0,*5C
1514491443.44,13168,5.56,71590.8,-6.51,-7.15,-7.15,0,*5F
1514491444.64,13169,5.56,71592.8,-6.51,-7.15,-7.15,0,*5E
1514491445.84,13170,5.56,71594.0,-6.51,-7.15,-7.15,0,*56
1514491447.04,13171,5.5,71590.8,-6.47,-7.11,-7.11,0,*50
1514491448.27,13172,5.56,71594.3,-6.47,-7.11,-7.01,0,*52
1514491449.49,13173,5.56,71592.0,-6.47,-7.11,-7.01,0,*53
1514491450.71,13174,5.56,71594.8,-6.51,-7.15,-7.05,0,*53
1514491451.96,13175,5.5,71592.0,-6.51,-7.01,-7.01,0,*53
1514491453.2,13176,5.56,71592.0,-6.51,-7.01,-7.05,0,*54
1514491454.44,13177,5.56,71594.0,-6.47,-7.01,-7.01,0,*56
1514491455.67,13178,5.56,71594.3,-6.45,-7.15,-7.11,0,*5F
1514491456.88,13179,5.5,71590.3,-6.47,-7.11,-7.11,0,*58
1514491458.08,13180,5.56,71590.8,-6.51,-7.19,-7.15,0,*55
1514491459.28,13181,5.5,71590.3,-6.47,-7.15,-7.11,0,*5B
1514491460.49,13182,5.56,71594.3,-6.47,-7.11,-7.11,0,*5C
1514491461.69,13183,5.56,71592.8,-6.51,-7.15,-7.15,0,*5A
1514491462.9,13184,5.5,71588.5,-6.47,-7.11,-7.11,0,*5A
1514491464.1,13185,5.56,71592.0,-6.47,-7.11,-7.11,0,*5B
1514491465.31,13186,5.56,71594.3,-6.47,-7.11,-7.11,0,*58
1514491466.53,13187,5.56,71590.8,-6.45,-7.15,-7.15,0,*5B
1514491467.76,13188,5.5,71588.5,-6.45,-7.15,-7.11,0,*50
1514491468.96,13189,5.56,71592.8,-6.47,-7.11,-7.11,0,*57
1514491470.17,13190,5.56,71590.5,-6.51,-7.15,-7.11,0,*5C
1514491471.39,13191,5.56,71588.3,-6.51,-7.15,-7.01,0,*5C
1514491472.59,13192,5.56,71588.8,-6.51,-7.15,-7.11,0,*5E
1514491473.8,13193,5.56,71588.8,-6.51,-7.15,-7.15,0,*5B
1514491475.04,13194,5.56,71588.8,-6.47,-7.01,-7.01,0,*5B
1514491476.24,13195,5.56,71590.3,-6.47,-7.11,-7.15,0,*5E
1514491477.47,13196,5.56,71588.8,-6.47,-7.11,-7.01,0,*58
1514491478.69,13197,5.56,71590.5,-6.47,-7.11,-7.01,0,*59
1514491479.92,13198,5.56,71588.0,-6.47,-7.11,-7.01,0,*56
1514491481.15,13199,5.56,71588.8,-6.47,-7.11,-7.01,0,*57
1514491482.39,13200,5.56,71586.8,-6.47,-7.01,-7.01,0,*55
1514491483.62,13201,5.56,71588.8,-6.47,-7.11,-7.01,0,*55
1514491484.82,13202,5.5,71588.0,-6.47,-7.11,-7.11,0,*57
1514491486.03,13203,5.56,71588.0,-6.47,-7.11,-7.11,0,*56
1514491487.26,13204,5.5,71588.3,-6.47,-7.01,-7.11,0,*50
1514491488.46,13205,5.56,71592.8,-6.47,-7.11,-7.11,0,*50
1514491489.67,13206,5.5,71590.0,-6.47,-7.15,-7.11,0,*57
1514491490.87,13207,5.56,71590.5,-6.51,-7.19,-7.15,0,*59
1514491492.08,13208,5.56,71590.8,-6.47,-7.11,-7.11,0,*5D
1514491493.31,13209,5.56,71590.8,-6.45,-7.11,-7.11,0,*5E
1514491494.57,13210,5.56,71590.0,-6.45,-7.01,-7.01,0,*56
1514491495.82,13211,5.56,71588.8,-6.47,-7.01,-7.01,0,*55
1514491497.09,13212,5.56,71586.8,-6.45,-7.01,-7.01,0,*54
1514491498.33,13213,5.56,71590.5,-6.47,-7.01,-7.01,0,*57
1514491499.56,13214,5.56,71586.8,-6.47,-7.01,-7.11,0,*51
1514491500.81,13215,5.56,71592.0,-6.47,-7.01,-7.01,0,*51
1514491502.08,13216,5.56,71590.5,-6.45,-7.01,-7.01,0,*50
1514491503.31,13217,5.56,71590.8,-6.45,-7.11,-7.11,0,*51
1514491504.51,13218,5.56,71590.5,-6.47,-7.11,-7.11,0,*5C
1514491505.72,13219,5.56,71590.3,-6.47,-7.15,-7.11,0,*59
1514491506.92,13220,5.5,71584.3,-6.47,-7.15,-7.15,0,*57
1514491508.12,13221,5.56,71586.8,-6.47,-7.15,-7.11,0,*52
1514491509.32,13222,5.56,71586.8,-6.47,-7.15,-7.15,0,*55
1514491510.52,13223,5.56,71590.8,-6.51,-7.19,-7.19,0,*53
1514491511.73,13224,5.56,71586.8,-6.47,-7.11,-7.15,0,*57
1514491512.93,13225,5.56,71586.0,-6.51,-7.15,-7.15,0,*55
1514491514.13,13226,5.56,71586.3,-6.47,-7.15,-7.11,0,*55
1514491515.33,13227,5.56,71590.8,-6.47,-7.11,-7.15,0,*54
1514491516.53,13228,5.56,71586.5,-6.47,-7.15,-7.15,0,*5F
1514491517.73,13229,5.56,71590.3,-6.47,-7.15,-7.15,0,*5E
1514491518.94,13230,5.5,71590.0,-6.47,-7.23,-7.11,0,*57
1514491520.14,13231,5.56,71590.5,-6.47,-7.15,-7.11,0,*53
1514491521.34,13232,5.56,71588.0,-6.47,-7.15,-7.15,0,*54
1514491522.54,13233,5.56,71588.5,-6.51,-7.19,-7.15,0,*5E
1514491523.74,13234,5.56,71594.0,-6.47,-7.15,-7.11,0,*56
1514491524.95,13235,5.56,71592.5,-6.47,-7.11,-7.11,0,*53
1514491526.16,13236,5.56,71594.0,-6.47,-7.11,-7.11,0,*50
1514491527.36,13237,5.56,71590.0,-6.51,-7.15,-7.15,0,*56
1514491528.58,13238,5.56,71590.0,-6.47,-7.01,-7.11,0,*5F
1514491529.85,13239,5.56,71588.0,-6.45,-7.01,-7.01,0,*5D
1514491531.1,13240,5.56,71588.8,-6.47,-7.01,-6.97,0,*5F
1514491532.35,13241,5.56,71592.3,-6.47,-7.01,-6.97,0,*5E
1514491533.55,13242,5.56,71590.3,-6.47,-7.11,-7.11,0,*53
1514491534.76,13243,5.56,71590.5,-6.47,-7.11,-7.11,0,*52
1514491535.98,13244,5.56,71594.3,-6.47,-7.01,-7.11,0,*54
1514491537.19,13245,5.56,71588.3,-6.51,-7.19,-7.15,0,*5F
1514491538.41,13246,5.56,71590.5,-6.45,-7.11,-7.15,0,*51
1514491539.64,13247,5.56,71594.0,-6.45,-7.15,-7.11,0,*50
1514491540.84,13248,5.56,71594.0,-6.47,-7.11,-7.15,0,*5D
1514491542.05,13249,5.56,71592.5,-6.47,-7.15,-7.11,0,*5C
1514491543.25,13250,5.56,71590.8,-6.47,-7.11,-7.11,0,*50
1514491544.47,13251,5.56,71588.3,-6.51,-7.19,-7.05,0,*5B
1514491545.7,13252,5.56,71588.0,-6.47,-7.15,-7.01,0,*57
1514491546.92,13253,5.56,71588.8,-6.47,-7.11,-7.01,0,*52
1514491548.19,13254,5.56,71590.8,-6.45,-7.01,-7.01,0,*56
1514491549.44,13255,5.56,71590.5,-6.45,-7.11,-7.01,0,*56
1514491550.67,13256,5.56,71590.8,-6.45,-7.11,-7.11,0,*54
1514491551.9,13257,5.56,71590.5,-6.45,-7.11,-7.11,0,*55
1514491553.1,13258,5.56,71590.3,-6.47,-7.11,-7.15,0,*5C
1514491554.33,13259,5.56,71586.5,-6.45,-7.11,-7.11,0,*5B
1514491555.53,13260,5.56,71586.5,-6.47,-7.15,-7.11,0,*57
1514491556.76,13261,5.5,71584.8,-6.47,-7.11,-7.01,0,*53
1514491557.98,13262,5.56,71588.8,-6.47,-7.01,-7.15,0,*54
1514491559.23,13263,5.56,71586.5,-6.45,-7.15,-7.01,0,*57
1514491560.46,13264,5.56,71590.8,-6.45,-7.11,-7.11,0,*55
1514491561.69,13265,5.56,71590.3,-6.45,-7.11,-7.11,0,*54
1514491562.92,13266,5.56,71586.0,-6.45,-7.11,-7.11,0,*57
1514491564.15,13267,5.56,71586.8,-6.45,-7.11,-7.15,0,*52
1514491565.37,13268,5.56,71588.0,-6.45,-7.11,-7.11,0,*59
1514491566.6,13269,5.56,71588.3,-6.45,-7.15,-7.11,0,*5C
1514491567.83,13270,5.56,71588.3,-6.45,-7.11,-7.11,0,*50
1514491569.06,13271,5.56,71590.8,-6.45,-7.11,-7.11,0,*51
1514491570.29,13272,5.56,71592.0,-6.47,-7.11,-7.01,0,*51
1514491571.51,13273,5.56,71588.0,-6.47,-7.11,-7.01,0,*50
1514491572.74,13274,5.56,71588.3,-6.47,-7.11,-6.97,0,*59
1514491573.98,13275,5.56,71590.0,-6.47,-7.01,-7.01,0,*57
1514491575.25,13276,5.56,71588.0,-6.45,-7.01,-7.01,0,*56
1514491576.48,13277,5.56,71588.8,-6.47,-7.01,-7.15,0,*50
1514491577.72,13278,5.56,71588.0,-6.47,-7.01,-7.01,0,*5A
1514491578.95,13279,5.56,71586.8,-6.45,-7.11,-7.11,0,*59
1514491580.2,13280,5.5,71584.5,-6.45,-7.11,-7.01,0,*5E
1514491581.47,13281,5.56,71590.5,-6.45,-7.01,-7.01,0,*5E
1514491582.74,13282,5.56,71586.8,-6.45,-7.01,-6.97,0,*53
1514491584.01,13283,5.56,71586.0,-6.45,-6.97,-7.01,0,*52
1514491585.28,13284,5.56,71590.5,-6.45,-6.97,-7.01,0,*55
1514491586.53,13285,5.56,71590.8,-6.45,-7.15,-7.01,0,*5F
1514491587.78,13286,5.56,71588.5,-6.45,-7.11,-7.01,0,*58
1514491589.02,13287,5.56,71586.8,-6.43,-7.01,-7.01,0,*5E
1514491590.22,13288,5.5,71580.5,-6.43,-7.11,-7.11,0,*51
1514491591.45,13289,5.56,71582.3,-6.45,-7.11,-7.11,0,*56
1514491592.68,13290,5.56,71584.8,-6.45,-7.15,-7.11,0,*5A
1514491593.91,13291,5.56,71590.3,-6.45,-7.15,-7.11,0,*5B
1514491595.14,13292,5.56,71590.8,-6.45,-7.11,-7.11,0,*5C
1514491596.38,13293,5.56,71588.8,-6.45,-7.11,-7.01,0,*5C
1514491597.61,13294,5.56,71588.8,-6.43,-7.11,-7.01,0,*5D
1514491598.88,13295,5.56,71590.3,-6.45,-7.01,-7.01,0,*5B
1514491600.11,13296,5.56,71590.0,-6.45,-7.11,-7.11,0,*58
1514491601.34,13297,5.56,71590.8,-6.45,-7.11,-7.11,0,*59
1514491602.56,13298,5.56,71592.0,-6.45,-7.15,-7.11,0,*52
1514491603.79,13299,5.56,71590.0,-6.45,-7.11,-7.11,0,*57
1514491605.02,13300,5.56,71588.0,-6.45,-7.11,-7.11,0,*56
1514491606.25,13301,5.56,71586.0,-6.45,-7.11,-7.11,0,*57
1514491607.48,13302,5.56,71588.8,-6.45,-7.11,-7.11,0,*54
1514491608.71,13303,5.56,71590.8,-6.45,-7.11,-7.11,0,*55
1514491609.94,13304,5.56,71588.5,-6.45,-7.15,-7.11,0,*56
1514491611.14,13305,5.56,71586.5,-6.43,-7.11,-7.11,0,*55
1514491612.39,13306,5.56,71588.0,-6.45,-7.01,-7.11,0,*51
1514491613.62,13307,5.56,71588.0,-6.45,-7.11,-7.11,0,*51
1514491614.85,13308,5.56,71584.3,-6.45,-7.11,-7.11,0,*5E
1514491616.1,13309,5.56,71586.3,-6.45,-7.11,-7.01,0,*5E
1514491617.34,13310,5.56,71588.0,-6.43,-7.01,-7.01,0,*51
1514491618.59,13311,5.56,71586.8,-6.43,-7.01,-7.01,0,*50
1514491619.86,13312,5.56,71586.0,-6.45,-6.97,-7.01,0,*5B
1514491621.13,13313,5.56,71584.8,-6.45,-6.97,-7.01,0,*5A
1514491622.38,13314,5.56,71584.5,-6.45,-7.11,-7.01,0,*52
1514491623.61,13315,5.56,71586.5,-6.45,-7.11,-7.11,0,*52
1514491624.83,13316,5.56,71584.5,-6.45,-7.15,-7.15,0,*51
1514491626.03,13317,5.56,71586.5,-6.43,-7.11,-7.15,0,*52
1514491627.26,13318,5.56,71588.5,-6.45,-7.15,-7.15,0,*5F
1514491628.49,13319,5.56,71588.5,-6.45,-7.11,-7.11,0,*5E
1514491629.71,13320,5.56,71590.0,-6.45,-7.11,-7.11,0,*54
1514491630.97,13321,5.56,71588.3,-6.45,-7.01,-7.11,0,*54
1514491632.2,13322,5.56,71590.5,-6.45,-7.11,-7.11,0,*56
1514491633.42,13323,5.56,71590.0,-6.43,-7.01,-7.11,0,*50
1514491634.67,13324,5.56,71590.5,-6.45,-7.01,-7.11,0,*51
1514491635.9,13325,5.56,71586.5,-6.45,-7.11,-7.11,0,*51
1514491637.13,13326,5.56,71586.8,-6.45,-7.11,-7.11,0,*52
1514491638.35,13327,5.56,71588.0,-6.43,-7.11,-7.01,0,*54
1514491639.6,13328,5.56,71590.5,-6.45,-7.11,-7.01,0,*5D
1514491640.85,13329,5.56,71588.0,-6.45,-7.11,-7.01,0,*5C
1514491642.1,13330,5.56,71586.5,-6.45,-7.11,-7.01,0,*54
1514491643.37,13331,5.56,71588.3,-6.45,-7.01,-7.01,0,*54
1514491644.61,13332,5.56,71588.8,-6.43,-6.97,-7.01,0,*5F
1514491645.86,13333,5.56,71590.5,-6.45,-7.11,-7.01,0,*57
1514491647.09,13334,5.56,71590.8,-6.45,-7.11,-7.11,0,*51
1514491648.32,13335,5.56,71586.5,-6.45,-7.15,-7.11,0,*54
1514491649.57,13336,5.56,71588.8,-6.45,-7.11,-7.01,0,*52
1514491650.81,13337,5.56,71588.5,-6.43,-7.01,-7.01,0,*54
1514491652.06,13338,5.56,71588.8,-6.45,-7.01,-7.11,0,*5C
1514491653.31,13339,5.56,71590.0,-6.45,-7.01,-7.11,0,*5D
1514491654.56,13340,5.56,71590.8,-6.45,-7.11,-7.01,0,*53
1514491655.81,13341,5.56,71590.5,-6.45,-7.11,-7.01,0,*52
1514491657.01,13342,5.56,71588.5,-6.43,-7.11,-7.11,0,*56
1514491658.24,13343,5.56,71588.0,-6.43,-7.01,-7.11,0,*56
1514491659.46,13344,5.56,71586.8,-6.45,-7.15,-7.11,0,*52
1514491660.73,13345,5.56,71588.3,-6.45,-6.97,-7.01,0,*59
1514491661.96,13346,5.56,71588.3,-6.43,-7.11,-7.01,0,*53
1514491663.21,13347,5.56,71584.3,-6.45,-7.11,-7.01,0,*54
1514491664.44,13348,5.56,71586.5,-6.45,-7.11,-7.11,0,*5A
1514491665.68,13349,5.56,71588.5,-6.45,-7.11,-7.01,0,*5A
1514491666.93,13350,5.56,71584.5,-6.45,-7.01,-7.11,0,*52
1514491668.16,13351,5.56,71588.3,-6.43,-7.11,-7.01,0,*55
1514491669.38,13352,5.56,71588.3,-6.43,-7.11,-7.01,0,*56
1514491670.63,13353,5.56,71588.5,-6.45,-7.11,-7.01,0,*51
1514491671.83,13354,5.56,71590.3,-6.43,-7.11,-7.11,0,*51
1514491673.1,13355,5.56,71588.5,-6.45,-7.01,-7.01,0,*56
1514491674.33,13356,5.56,71590.8,-6.45,-7.11,-7.11,0,*55
1514491675.6,13357,5.56,71590.3,-6.45,-7.01,-6.97,0,*5A
1514491676.87,13358,5.56,71586.8,-6.45,-7.01,-7.01,0,*5B
1514491678.09,13359,5.5,71584.0,-6.43,-7.15,-7.01,0,*59
1514491679.31,13360,5.56,71588.5,-6.43,-7.15,-7.01,0,*53
1514491680.54,13361,5.56,71588.0,-6.45,-7.11,-7.11,0,*51
1514491681.74,13362,5.5,71584.5,-6.43,-7.15,-7.11,0,*50
1514491682.97,13363,5.56,71588.3,-6.45,-7.11,-7.11,0,*53
1514491684.2,13364,5.56,71586.3,-6.45,-7.11,-7.11,0,*54
1514491685.46,13365,5.56,71586.8,-6.41,-7.05,-7.05,0,*51
1514491686.69,13366,5.56,71586.0,-6.45,-7.15,-7.11,0,*52
1514491687.94,13367,5.56,71586.5,-6.45,-7.01,-7.11,0,*56
1514491689.14,13368,5.56,71590.0,-6.43,-7.11,-7.15,0,*5A
1514491690.37,13369,5.56,71584.5,-6.45,-7.11,-7.11,0,*59
1514491691.57,13370,5.56,71586.8,-6.43,-7.11,-7.11,0,*57
1514491692.77,13371,5.56,71588.3,-6.43,-7.11,-7.15,0,*52
1514491693.98,13372,5.56,71584.3,-6.43,-7.11,-7.11,0,*55
1514491695.2,13373,5.56,71584.3,-6.45,-7.15,-7.11,0,*56
1514491696.4,13374,5.56,71586.5,-6.43,-7.11,-7.15,0,*57
1514491697.63,13375,5.56,71580.3,-6.45,-7.15,-7.15,0,*54
1514491698.85,13376,5.56,71582.3,-6.45,-7.15,-7.15,0,*57
1514491700.06,13377,5.56,71582.5,-6.43,-7.11,-7.11,0,*50
1514491701.28,13378,5.56,71582.8,-6.45,-7.11,-7.11,0,*59
1514491702.48,13379,5.56,71586.0,-6.43,-7.15,-7.15,0,*5E
1514491703.71,13380,5.56,71582.8,-6.45,-7.11,-7.11,0,*5E
1514491704.94,13381,5.56,71582.8,-6.45,-7.15,-7.15,0,*5F
1514491706.13,13382,5.56,71586.3,-6.43,-7.23,-7.15,0,*5F
1514491707.33,13383,5.56,71582.3,-6.43,-7.23,-7.11,0,*5A
1514491708.55,13384,5.56,71584.0,-6.45,-7.23,-7.15,0,*5F
1514491709.75,13385,5.56,71582.0,-6.43,-7.15,-7.15,0,*5D
1514491710.98,13386,5.56,71584.3,-6.45,-7.15,-7.15,0,*58
1514491712.21,13387,5.56,71584.8,-6.45,-7.11,-7.11,0,*59
1514491713.41,13388,5.56,71584.5,-6.43,-7.15,-7.11,0,*54
1514491714.63,13389,5.56,71584.3,-6.45,-7.15,-7.15,0,*57